Weather in Syresi

Russia / Chuvash Republic     55°04′05″N   46°24′59″E
temp.,
°C
wind,
m/s
gust,
m/s
humid.,
%
clouds,
%
prec.,
mm/h
press.,
hPa
HPBL,
m
15 april, thu
thu1500:00+11sse23870 0.0 102126
03:00+10se22870 0.0 102111
06:00+9sse22860 0.0 102021
09:00+15s235912 0.0 1020310
12:00+18ssw2240100 0.0 10191423
15:00+18wsw113587 0.0 10181433
18:00+16n11450 0.0 101811
21:00+12nne22540 0.0 101911
16 april, fri
fri1600:00+10ne33776 0.0 101935
03:00+8ne499656 0.0 1020208
06:00+9ene5993100 0.0 1021388
09:00+10ene5883100 0.0 1022538
12:00+13ene566771 0.0 1022799
15:00+15ene665957 0.0 10221000
18:00+12ne596927 0.0 1023643
21:00+8ne510785 0.0 1024363
17 april, sat
sat1700:00+6ne49757 0.0 1025268
03:00+5ne49788 0.0 1025258
06:00+5ene4117825 0.0 1026346
09:00+9e685970 0.0 1026652
12:00+13e674422 0.0 10261063
15:00+14e67405 0.0 10251212
18:00+11ene474820 0.0 1025240
21:00+7ene39595 0.0 1025203
18 april, sun
sun1800:00+5ene38655 0.0 1025186
03:00+3ne36730 0.0 1025110
06:00+4ene310730 0.0 1025297
09:00+9ene68500 0.0 1025901
12:00+12ene56390 0.0 10241500
15:00+13ene67385 0.0 10241832
18:00+11ene594714 0.0 1024459
21:00+7ene7136598 0.0 1026545
19 april, mon
mon1900:00+6ene5117299 0.0 1027518
03:00+3ene6125899 0.0 1028458
06:00+2ene5115730 0.0 1029500
09:00+5e71051100 0.0 1029962
12:00+7e7939100 0.0 10291524
15:00+7e7935100 0.0 10291560
18:00+6ene6941100 0.0 10291001
21:00+4ene61244100 0.0 1029497